Dodge City, KS

4:40 AM CST on February 28, 2017 (GMT -0600)
Dodge City Regional

Weather History for KDDC - September, 2013

Change the Weather History Date:

Saturday, September 28, 2013

  Actual Average Record
Temperature  
Mean Temperature 58 °F -  
Max Temperature 70 °F 77 °F 98 °F (1953)
Min Temperature 46 °F 52 °F 34 °F (1945)
Degree Days  
Heating Degree Days 7    
Growing Degree Days 8 (Base 50)    
Moisture  
Dew Point 46 °F    
Average Humidity 68    
Maximum Humidity 94    
Minimum Humidity 22    
Precipitation  
Precipitation 0.12 in - - ()
Sea Level Pressure  
Sea Level Pressure 29.97 in    
Wind  
Wind Speed 19 mph (NW)    
Max Wind Speed 32 mph    
Max Gust Speed 43 mph    
Visibility 8 miles    
Events Rain , Thunderstorm    
Averages and records for this station are not official NWS values.
T = Trace of Precipitation, MM = Missing Value Source: NWS Daily Summary

Daily Weather History Graph

Daily Weather History Graph

Search for Another Location

Airport or City:

Trip Planner

Search our weather history database for the weather conditions in past years. The results will help you decide how hot, cold, wet, or windy it might be!

Date:

Astronomy

Sep. 28, 2013 Rise Set
Actual Time 7:33 AM CDT 7:27 PM CDT
Civil Twilight 7:06 AM CDT 7:53 PM CDT
Nautical Twilight 6:36 AM CDT 8:23 PM CDT
Astronomical Twilight 6:05 AM CDT 8:54 PM CDT
Moon 1:27 AM CDT 3:42 PM CDT
Length of Visible Light 12h 46m
Length of Day
11h 54m
Waning Crescent, 36% of the Moon is Illuminated
Sep 28
Waning Crescent
Oct 4
New
Oct 11
First Quarter
Oct 18
Full
Oct 26
Last Quarter

Hourly Weather History & Observations

Time (CDT) Temp. Dew Point Humidity Pressure Visibility Wind Dir Wind Speed Gust Speed Precip Events Conditions
12:22 AM 69.8 °F 64.4 °F 83% 29.75 in 9.0 mi South 17.3 mph 25.3 mph N/A Thunderstorm Mostly Cloudy
12:34 AM 68.0 °F 64.4 °F 88% 29.81 in 1.8 mi West 31.1 mph 42.6 mph 0.04 in Rain , Thunderstorm Heavy Thunderstorms and Rain
12:40 AM 62.6 °F 60.8 °F 94% 29.80 in 1.5 mi West 23.0 mph 42.6 mph 0.13 in Rain , Thunderstorm Thunderstorms and Rain
12:42 AM 62.6 °F 60.8 °F 94% 29.81 in 1.8 mi West 24.2 mph 42.6 mph 0.13 in Rain , Thunderstorm Thunderstorms and Rain
12:47 AM 62.6 °F 60.8 °F 94% 29.81 in 2.5 mi West 21.9 mph 32.2 mph 0.16 in Rain , Thunderstorm Heavy Thunderstorms and Rain
12:52 AM 62.1 °F 60.1 °F 93% 29.75 in 2.5 mi WNW 27.6 mph 33.4 mph 0.19 in Rain , Thunderstorm Thunderstorms and Rain
1:09 AM 55.4 °F 53.6 °F 94% 29.86 in 3.0 mi NW 26.5 mph 35.7 mph 0.09 in Rain Rain
1:18 AM 53.6 °F 51.8 °F 94% 29.87 in 7.0 mi NW 24.2 mph 38.0 mph 0.10 in Rain , Thunderstorm Light Rain
1:27 AM 53.6 °F 50.0 °F 88% 29.87 in 10.0 mi NW 32.2 mph 40.3 mph 0.10 in Rain Light Rain
1:36 AM 53.6 °F 50.0 °F 88% 29.88 in 10.0 mi NNW 25.3 mph 40.3 mph 0.10 in Rain Light Rain
1:52 AM 53.1 °F 48.9 °F 86% 29.83 in 10.0 mi NNW 18.4 mph 35.7 mph 0.10 in Rain Light Rain
2:05 AM 53.6 °F 50.0 °F 88% 29.91 in 9.0 mi NNW 23.0 mph 29.9 mph 0.00 in Rain Light Rain
2:16 AM 53.6 °F 48.2 °F 82% 29.91 in 10.0 mi NNW 20.7 mph 29.9 mph 0.00 in Rain Light Rain
2:52 AM 52.0 °F 46.9 °F 83% 29.86 in 10.0 mi NNW 16.1 mph 28.8 mph 0.00 in   Partly Cloudy
3:52 AM 51.1 °F 46.0 °F 83% 29.86 in 10.0 mi NNW 15.0 mph 24.2 mph N/A   Clear
4:52 AM 50.0 °F 45.0 °F 83% 29.89 in 10.0 mi NNW 12.7 mph - N/A   Clear
5:52 AM 48.9 °F 45.0 °F 86% 29.94 in 10.0 mi NNW 9.2 mph - N/A   Clear
6:52 AM 48.9 °F 45.0 °F 86% 29.97 in 10.0 mi NNW 12.7 mph - N/A   Clear
7:52 AM 46.9 °F 43.0 °F 86% 30.01 in 10.0 mi NNW 10.4 mph - N/A   Clear
8:52 AM 48.9 °F 44.1 °F 83% 30.03 in 10.0 mi NNW 12.7 mph - N/A   Clear
9:52 AM 54.0 °F 42.1 °F 64% 30.06 in 10.0 mi NNW 16.1 mph 25.3 mph N/A   Clear
10:52 AM 59.0 °F 42.1 °F 53% 30.08 in 10.0 mi NNW 15.0 mph - N/A   Clear
11:52 AM 62.1 °F 39.0 °F 43% 30.09 in 10.0 mi NNW 19.6 mph 25.3 mph N/A   Clear
12:52 PM 66.0 °F 36.0 °F 33% 30.09 in 10.0 mi NNW 18.4 mph 28.8 mph N/A   Clear
1:52 PM 66.9 °F 34.0 °F 30% 30.08 in 10.0 mi NNW 16.1 mph 26.5 mph N/A   Clear
2:52 PM 68.0 °F 37.0 °F 32% 30.07 in 10.0 mi NNW 10.4 mph 21.9 mph N/A   Clear
3:52 PM 69.1 °F 35.1 °F 29% 30.07 in 10.0 mi North 13.8 mph 23.0 mph N/A   Clear
4:52 PM 69.1 °F 34.0 °F 27% 30.06 in 10.0 mi NNW 13.8 mph 20.7 mph N/A   Clear
5:52 PM 69.1 °F 35.1 °F 29% 30.08 in 10.0 mi NNW 10.4 mph - N/A   Clear
6:52 PM 64.9 °F 37.0 °F 36% 30.09 in 10.0 mi North 8.1 mph - N/A   Clear
7:52 PM 57.9 °F 39.9 °F 51% 30.11 in 10.0 mi North 4.6 mph - N/A   Clear
8:52 PM 54.0 °F 39.9 °F 59% 30.12 in 10.0 mi Calm Calm - N/A   Clear
9:52 PM 52.0 °F 39.0 °F 61% 30.12 in 10.0 mi Calm Calm - N/A   Clear
10:52 PM 50.0 °F 39.9 °F 68% 30.14 in 10.0 mi South 4.6 mph - N/A   Clear
11:52 PM 48.0 °F 41.0 °F 77% 30.14 in 10.0 mi SSW 5.8 mph - N/A   Clear